Leeuwarden, Netherlands

4:09 PM CEST on September 20, 2017 (GMT +0200)
Leeuwarden Air Base

Weather History for EHLW - March, 2013

Change the Weather History Date:

Thursday, March 28, 2013

  Actual Average Record
Temperature  
Mean Temperature 30 °F -  
Max Temperature 36 °F 52 °F 64 °F (2007)
Min Temperature 24 °F 38 °F 24 °F (2013)
Degree Days  
Heating Degree Days 35    
Moisture  
Dew Point 24 °F    
Average Humidity 76    
Maximum Humidity 93    
Minimum Humidity 50    
Precipitation  
Precipitation 0.00 in - - ()
Sea Level Pressure  
Sea Level Pressure 29.88 in    
Wind  
Wind Speed 9 mph ()    
Max Wind Speed 18 mph    
Max Gust Speed -    
Visibility 5.5 miles    
Events Snow    
Averages and records for this station are not official NWS values.
T = Trace of Precipitation, MM = Missing Value Source: Averaged Metar Reports

Daily Weather History Graph

Daily Weather History Graph

Search for Another Location

Airport or City:

Trip Planner

Search our weather history database for the weather conditions in past years. The results will help you decide how hot, cold, wet, or windy it might be!

Date:

Astronomy

Mar. 28, 2013 Rise Set
Actual Time 6:20 AM CET 7:04 PM CET
Civil Twilight 5:45 AM CET 7:40 PM CET
Nautical Twilight 5:03 AM CET 8:22 PM CET
Astronomical Twilight 4:18 AM CET 9:07 PM CET
Moon 8:57 PM CET (3/28) 6:24 AM CET (3/28)
Length of Visible Light 13h 55m
Length of Day
12h 44m
Full, 99% of the Moon is Illuminated
Mar 28
Full
Apr 3
Last Quarter
Apr 10
New
Apr 18
First Quarter
Apr 25
Full

Hourly Weather History & Observations

Time (CET) Temp. Windchill Dew Point Humidity Pressure Visibility Wind Dir Wind Speed Gust Speed Precip Events Conditions
12:55 AM 26.6 °F 16.8 °F 21.2 °F 80% 29.95 in 6.2 mi ENE 10.4 mph - N/A   Unknown
1:00 AM 27 °F - 21 °F 70% 29.96 in 18 mi ENE 11.2 mph - -   Partly Cloudy
1:25 AM 26.6 °F 17.5 °F 21.2 °F 80% 29.95 in 6.2 mi ENE 9.2 mph - N/A   Unknown
1:55 AM 26.6 °F 17.5 °F 21.2 °F 80% 29.95 in 6.2 mi ENE 9.2 mph - N/A   Unknown
2:25 AM 26.6 °F 17.5 °F 21.2 °F 80% 29.95 in 6.2 mi ENE 9.2 mph - N/A   Unknown
2:55 AM 26.6 °F 17.5 °F 21.2 °F 80% 29.95 in 6.2 mi ENE 9.2 mph - N/A   Partly Cloudy
3:25 AM 26.6 °F 16.8 °F 21.2 °F 80% 29.95 in 6.2 mi ENE 10.4 mph - N/A   Unknown
3:55 AM 26.6 °F 16.8 °F 21.2 °F 80% 29.92 in 6.2 mi ENE 10.4 mph - N/A   Partly Cloudy
4:25 AM 26.6 °F 16.8 °F 21.2 °F 80% 29.92 in 6.2 mi ENE 10.4 mph - N/A   Unknown
4:55 AM 26.6 °F 17.5 °F 23.0 °F 86% 29.92 in 6.2 mi ENE 9.2 mph - N/A   Scattered Clouds
5:25 AM 26.6 °F 17.5 °F 23.0 °F 86% 29.92 in 6.2 mi ENE 9.2 mph - N/A   Partly Cloudy
5:55 AM 26.6 °F 17.5 °F 21.2 °F 80% 29.92 in 6.2 mi ENE 9.2 mph - N/A   Partly Cloudy
6:25 AM 24.8 °F 16.9 °F 21.2 °F 86% 29.92 in 6.2 mi ENE 6.9 mph - N/A   Unknown
6:55 AM 24.8 °F 16.9 °F 21.2 °F 86% 29.92 in 6.2 mi ENE 6.9 mph - N/A   Unknown
7:00 AM 25 °F - 21 °F 79% 29.94 in 9 mi NE 6.7 mph - -   Partly Cloudy
7:25 AM 26.6 °F 19.1 °F 23.0 °F 86% 29.92 in 6.2 mi NE 6.9 mph - N/A   Unknown
7:55 AM 28.4 °F 19.7 °F 24.8 °F 86% 29.92 in 6.2 mi ENE 9.2 mph - N/A   Unknown
8:25 AM 30.2 °F 20.2 °F 24.8 °F 80% 29.92 in 6.2 mi ENE 12.7 mph - N/A   Unknown
8:55 AM 32.0 °F 23.0 °F 23.0 °F 69% 29.92 in 6.2 mi East 11.5 mph - N/A   Partly Cloudy
9:25 AM 32.0 °F 22.5 °F 23.0 °F 69% 29.92 in 6.2 mi East 12.7 mph - N/A   Unknown
9:55 AM 33.8 °F 23.5 °F 23.0 °F 65% 29.92 in 6.2 mi ENE 16.1 mph - N/A   Partly Cloudy
10:25 AM 35.6 °F 25.9 °F 23.0 °F 60% 29.89 in 6.2 mi ENE 16.1 mph - N/A   Partly Cloudy
10:55 AM 35.6 °F 25.9 °F 21.2 °F 56% 29.89 in 6.2 mi East 16.1 mph - N/A   Mostly Cloudy
11:25 AM 33.8 °F 22.8 °F 21.2 °F 60% 29.89 in 6.2 mi East 18.4 mph - N/A   Overcast
11:55 AM 33.8 °F 23.5 °F 23.0 °F 65% 29.89 in 6.2 mi ENE 16.1 mph - N/A   Overcast
12:25 PM 33.8 °F 23.2 °F 21.2 °F 60% 29.89 in 6.2 mi East 17.3 mph - N/A   Overcast
12:55 PM 33.8 °F 23.9 °F 23.0 °F 65% 29.89 in 6.2 mi East 15.0 mph - N/A   Overcast
1:00 PM 34 °F - 22 °F 50% 29.90 in 11 mi East 13.4 mph - -   Partly Cloudy
1:25 PM 33.8 °F 23.5 °F 23.0 °F 65% 29.89 in 6.2 mi East 16.1 mph - N/A   Overcast
1:34 PM 33.8 °F 23.5 °F 23.0 °F 65% 29.89 in 6.2 mi ENE 16.1 mph - N/A   Overcast
1:55 PM 33.8 °F 24.3 °F 23.0 °F 65% 29.89 in 6.2 mi ENE 13.8 mph - N/A   Overcast
2:25 PM 33.8 °F 24.3 °F 23.0 °F 65% 29.89 in 6.2 mi ENE 13.8 mph - N/A   Overcast
2:55 PM 33.8 °F 25.3 °F 23.0 °F 65% 29.89 in 6.2 mi East 11.5 mph - N/A   Overcast
3:25 PM 33.8 °F 24.8 °F 21.2 °F 60% 29.86 in 6.2 mi East 12.7 mph - N/A   Mostly Cloudy
3:55 PM 33.8 °F 24.8 °F 23.0 °F 65% 29.86 in 6.2 mi ENE 12.7 mph - N/A   Overcast
4:12 PM 33.8 °F 23.9 °F 23.0 °F 65% 29.86 in 6.2 mi NE 15.0 mph - N/A   Overcast
4:21 PM 33.8 °F 23.9 °F 23.0 °F 65% 29.86 in 6.2 mi ENE 15.0 mph - N/A   Overcast
4:25 PM 33.8 °F 24.3 °F 24.8 °F 70% 29.86 in 6.2 mi ENE 13.8 mph - N/A   Mostly Cloudy
4:55 PM 33.8 °F 24.3 °F 23.0 °F 65% 29.86 in 6.2 mi ENE 13.8 mph - N/A   Overcast
5:25 PM 33.8 °F 25.3 °F 23.0 °F 65% 29.86 in 6.2 mi ENE 11.5 mph - N/A   Overcast
5:55 PM 33.8 °F 27.0 °F 23.0 °F 65% 29.86 in 6.2 mi ENE 8.1 mph - N/A   Overcast
6:25 PM 33.8 °F 26.4 °F 23.0 °F 65% 29.86 in 6.2 mi ENE 9.2 mph - N/A   Overcast
6:54 PM 32.0 °F 25.6 °F 23.0 °F 69% 29.86 in 6.2 mi East 6.9 mph - N/A   Overcast
6:55 PM 32.0 °F 25.6 °F 23.0 °F 69% 29.86 in 6.2 mi East 6.9 mph - N/A   Overcast
7:00 PM 33 °F - 24 °F 57% 29.88 in 6 mi East 6.7 mph - - Snow Light Snow Showers
7:16 PM 32.0 °F 24.8 °F 23.0 °F 69% 29.86 in 4.3 mi ENE 8.1 mph - N/A Snow Light Snow
7:19 PM 32.0 °F 24.8 °F 24.8 °F 75% 29.86 in 5.6 mi ENE 8.1 mph - N/A Snow Light Snow
7:25 PM 32.0 °F 24.8 °F 24.8 °F 75% 29.86 in 4.3 mi ENE 8.1 mph - N/A Snow Light Snow
7:29 PM 32.0 °F 24.8 °F 23.0 °F 69% 29.86 in 5.0 mi ENE 8.1 mph - N/A Snow Light Snow
7:33 PM 32.0 °F 24.2 °F 24.8 °F 75% 29.86 in 3.7 mi ENE 9.2 mph - N/A Snow Light Snow
7:38 PM 32.0 °F 24.2 °F 24.8 °F 75% 29.86 in 5.0 mi NE 9.2 mph - N/A Snow Light Snow
7:42 PM 32.0 °F 24.2 °F 24.8 °F 75% 29.86 in 4.3 mi NE 9.2 mph - N/A Snow Light Snow
7:46 PM 32.0 °F 24.2 °F 24.8 °F 75% 29.86 in 5.0 mi NE 9.2 mph - N/A Snow Light Snow
7:55 PM 32.0 °F 24.8 °F 24.8 °F 75% 29.86 in 5.0 mi NE 8.1 mph - N/A Snow Light Snow
7:56 PM 32.0 °F 24.8 °F 24.8 °F 75% 29.86 in 5.0 mi NE 8.1 mph - N/A Snow Light Snow
8:06 PM 32.0 °F 24.8 °F 24.8 °F 75% 29.86 in 4.3 mi NE 8.1 mph - N/A   Haze
8:25 PM 30.2 °F 23.4 °F 26.6 °F 86% 29.89 in 3.1 mi NE 6.9 mph - N/A Snow Light Snow
8:39 PM 30.2 °F 23.4 °F 26.6 °F 86% 29.89 in - NE 6.9 mph - N/A Snow Light Snow
8:40 PM 30.2 °F 23.4 °F 26.6 °F 86% 29.89 in 3.1 mi NE 6.9 mph - N/A Snow Light Snow
8:49 PM 30.2 °F 23.4 °F 26.6 °F 86% 29.86 in 2.8 mi NE 6.9 mph - N/A Snow Light Snow
8:55 PM 30.2 °F 23.4 °F 26.6 °F 86% 29.86 in 2.8 mi NE 6.9 mph - N/A Snow Light Snow
9:12 PM 30.2 °F 24.3 °F 26.6 °F 86% 29.86 in - NE 5.8 mph - N/A Snow Light Snow
9:16 PM 30.2 °F 24.3 °F 26.6 °F 86% 29.86 in 2.5 mi NE 5.8 mph - N/A Snow Light Snow
9:25 PM 30.2 °F 24.3 °F 26.6 °F 86% 29.86 in - NE 5.8 mph - N/A Snow Light Snow
9:28 PM 30.2 °F 23.4 °F 26.6 °F 86% 29.86 in - NE 6.9 mph - N/A Snow Light Snow
9:45 PM 30.2 °F 24.3 °F 26.6 °F 86% 29.86 in - NE 5.8 mph - N/A Snow Light Snow
9:48 PM 30.2 °F 23.4 °F 26.6 °F 86% 29.86 in - NE 6.9 mph - N/A Snow Light Snow
9:55 PM 30.2 °F 23.4 °F 26.6 °F 86% 29.86 in 2.2 mi NE 6.9 mph - N/A Snow Light Snow
9:59 PM 30.2 °F 22.6 °F 26.6 °F 86% 29.86 in - NE 8.1 mph - N/A Snow Light Snow
10:03 PM 30.2 °F 22.6 °F 26.6 °F 86% 29.86 in - NE 8.1 mph - N/A Snow Light Snow
10:07 PM 30.2 °F 22.6 °F 26.6 °F 86% 29.86 in - NE 8.1 mph - N/A Snow Light Snow
10:11 PM 30.2 °F 23.4 °F 26.6 °F 86% 29.86 in - NE 6.9 mph - N/A Snow Light Snow
10:19 PM 30.2 °F 23.4 °F 26.6 °F 86% 29.86 in - NE 6.9 mph - N/A Snow Light Snow
10:25 PM 30.2 °F 23.4 °F 26.6 °F 86% 29.86 in - NE 6.9 mph - N/A Snow Light Snow
10:30 PM 30.2 °F 23.4 °F 26.6 °F 86% 29.86 in - NE 6.9 mph - N/A Snow Light Snow
10:35 PM 28.4 °F 21.2 °F 26.6 °F 93% 29.86 in 2.2 mi NE 6.9 mph - N/A Snow Light Snow
10:55 PM 28.4 °F 21.2 °F 26.6 °F 93% 29.86 in 1.8 mi NE 6.9 mph - N/A Snow Light Snow
11:25 PM 28.4 °F 21.2 °F 26.6 °F 93% 29.86 in 1.7 mi NE 6.9 mph - N/A Snow Light Snow
11:43 PM 28.4 °F 23.3 °F 24.8 °F 86% 29.86 in 1.5 mi NE 4.6 mph - N/A Snow Light Snow
11:44 PM 28.4 °F 23.3 °F 26.6 °F 93% 29.86 in 1.4 mi NE 4.6 mph - N/A Snow Light Snow
11:55 PM 28.4 °F 23.3 °F 26.6 °F 93% 29.86 in 1.4 mi NE 4.6 mph - N/A   Partly Cloudy